Погода Чёрный Яр

Погода Чёрный Яр : погода сейчас, прогноз погоды и архив. Всё, что Вы хотите узнать о погоде Чёрный Яр!

Поиск расширенной информации на нашем сайте:

Другие новости

Новости СМИ2

Главная страница сайта

Новости сайта

02.10.2013

Напоминаем, что на нашем новом сайте вы можете получить высокодетализированные прогнозы погоды по пунктам России, СНГ и мира (включающие важные для авиации метеовеличины, такие как направление и скорость ветра, видимость, явления погоды, количество и форма облачности, нижняя и верхняя граница облачности), а также ознакомиться с разнообразными материалами по авиационной метеорологии и подборкой полезных ссылок на эту тему.

Сайт Метеоцентр.Азия посвящён разработке технологий оптимизации авиаметеорологического обслуживания, включая проектирование и перспективное создание нескольких автоматизированных авиаметеорологических систем:
- система выпуска высокодетальных прогностических карт явлений погоды для нижнего воздушного пространства по России и ближнему зарубежью;
- система верификации прогнозов TAF (выпускаемых синоптиками официальных АМСГ РФ и ближнего зарубежья) и AUTOTAF (выпускаемых сайтом Метеоцентр.Азия) - выявление ошибок, онлайн-сопоставление с фактической погодой METAR, автоматическое внесение коррективов в прогнозы при резком отклонении фактической погоды от прогноза, подсчёт оправдываемости прогнозов по элементам и в целом;
- система обработки, анализа и отображения авиаметеорологической информации для применения провайдерами метеорологической информации.

Рекомендуем: Смотреть онлайн обмануть.

Погода Чёрный Яр - сегодня

Время (UTC), дата Ветер
(°,м/с) 
Видим.   Явления Облачность Т
(°С)
Тd
(°С)
f(%) Тe
(°С)
Pmin
(гПа)
dP
(гПа)
Po
(мм)
O2
(г/м3)
Тmin Tmax R s Состояние
почвы
06 17.02.17 320 (СЗ) 10 км    3/0 средняя 
[Ac trans]
-13 -15.1 84 -17  1028.3  1.9  771  327  -13.8         
09 17.02.17 290 (З) 10 км    1/0 верхняя 
[Ci fib]
-9.8 -13.4 75 -14  1028.6  0.3  771  323           
12 17.02.17 280 (З) 10 км    ясно 
-7.6 -12 71 -10  1028.3  -0.4  771  321           
15 17.02.17 280 (З) 10 км    ясно 
-11 -13.2 84 -13  1029  0.7  771  325    -7.5       
18 17.02.17 230 (ЮЗ) 4000 м  дымка  ясно 
-16.7 -18 90 -17  1028.8  -0.1  771  332           
21 17.02.17 230 (ЮЗ) 4000 м  дымка [диам. изморози 2 мм]  ясно 
-19 -20.5 88 -22  1028.6  -0.2  771  335           
00 18.02.17 210 (ЮЗ) 4000 м  дымка [диам. изморози 4 мм]  5/0 верхняя 
[Ci]
-19.5 -21.3 86 -20  1027.7  -0.9  770  336           
03 18.02.17 190 (Ю) 4000 м  дымка [диам. изморози 5 мм]  10/0 средняя 
[Ac und]
-12.2 -13.2 92 -14  1026.1  -1.7  769  326  -19.6      18  равномерный
сухой снег
100% 
06 18.02.17 180 (Ю) 4000 м  дымка [диам. изморози 5 мм]  10/0 средняя 
[Ac und]
-9.7 -10.8 92 -13  1025.3  -0.7  768  322           
09 18.02.17 200 (Ю) 6{10}  10 км    10/0 средняя 
[Ac und]
-5.5 -8.8 78 -10  1024.2  -1.1  768  317           
12 18.02.17 210 (ЮЗ) 10 км    10/0 средняя 
[Ac und]
-3.6 -6.4 81 -7  1022.5  -1.8  766  314           
15 18.02.17 210 (ЮЗ) 4000 м  дымка  10/0 средняя 
[Ac und]
-2.4 -4.4 86 -5  1022.4  766  312    -2.4       
18 18.02.17 210 (ЮЗ) 4000 м  дымка  10/4 600 м средняя 
[Sc|Ac lent]
-2.8 -4.6 87 -6  1022.4  766  313           
21 18.02.17 220 (ЮЗ) 4000 м  дымка  10/6 600 м средняя 
[Sc|Ac lent]
-2.9 -4.5 89 -7  1022.7  0.3  767  313           
00 19.02.17 230 (ЮЗ) 6{10}  4000 м  дымка  10/10 600 м 
[Sc]
-1.5 -2 96 -5  1022.7  767  311           
03 19.02.17 230 (ЮЗ) 7-10{11}  4000 м  дымка  9/4 600 м средняя 
[Sc|Ac cast]
-2 -3.6 89 -6  1023.2  0.5  767  312  -3.9      18  равномерный
мокрый или
старый снег
100% 
06 19.02.17 220 (ЮЗ) 8-12{12}  10 км    10/0 средняя 
[Ac cast]
-1.2 -3.6 84 -6  1024.1  0.9  768  311           
09 19.02.17 230 (ЮЗ) 6{12}  10 км    10/0 средняя 
[Ac cast]
+1.1 -1.5 83 -2  1025.1  768  309           
12 19.02.17 230 (ЮЗ) 6{10}  10 км    9/0 средняя 
[Ac cast]
+1.9 -0.7 83 -1  1025.1  768  308           
15 19.02.17 230 (ЮЗ) 4000 м  дымка  10/0 средняя 
[Ac cast]
+1.1 -0.4 90 -1  1026.3  1.2  769  309    +2.1       
18 19.02.17 230 (ЮЗ) 4000 м  дымка  10/4 600 м средняя 
[Sc|Ac lent]
+0.8 -0.3 92 -2  1026.5  0.2  769  309           
21 19.02.17 210 (ЮЗ) 4000 м  дымка  10/5 600 м средняя 
[Sc|Ac lent]
+0.9 -0.3 92 -1  1026.2  -0.3  769  309           
00 20.02.17 220 (ЮЗ) 4000 м  дымка  10/3 600 м средняя 
[Sc|Ac lent]
+0.2 -1.2 90 -2  1025.8  -0.4  769  310           
03 20.02.17 220 (ЮЗ) 4000 м  дымка  10/0 средняя 
[Ac trans]
+0 -1.5 90 -2  1025  -0.8  768  310  +0      13  равномерный
мокрый или
старый снег
100% 
06 20.02.17 210 (ЮЗ) 10 км    10/0 средняя 
[Ac und]
+0.8 -1.2 86 -1  1025.1  0.1  768  309  -0.2         
Время (UTC), дата Ветер
(°,м/с) 
Видим.   Явления Облачность Т
(°С)
Тd
(°С)
f(%) Тe
(°С)
Pmin
(гПа)
dP
(гПа)
Po
(мм)
O2
(г/м3)
Тmin Tmax R s Состояние
почвы

Для получения пояснительной информации подведите курсор к названию столбца.

ПОГОДА Чёрный Яр - архив

Всё, что Вы хотите узнать о погоде Чёрный Яр - удобно и подробно!

Выберите нужную дату (начиная с 1 января 2015* года) и нажмите кнопку "Найти".
Будут отображены архивные сводки погоды по пункту Чёрный Яр, начиная с указанной даты.


Отображать данные в формате CSV (для использования в таблицах Excel)


Внимание! Наш архив погоды предназначен исключительно для личного некоммерческого использования в познавательных целях. Если Вам необходимы официальные справки о состоянии погоды (для производственных, юридических, коммерческих и т.п. целей), обращайтесь в органы Росгидромета.

*Примечание: данная дата относится к архиву по метеостанциям СССР (Россия, СНГ, Балтия).
Архив по метеостанциям Зарубежной Европы и Азии (кроме Китая) хранится 10 дней, по другим регионам земного шара (Китай, Африка, Америка, Австралия, Океания) - 1 день.

Чёрный Яр - район местоположения метеостанции


Название, широта, долгота, высота метеостанции:
Чёрный Яр 48.1°ш. 46.1°д. 5 м над ур. моря [Российская Федерация]

Дополнительная информация

В oтличие oт бoльшинства пoгoдных сайтoв мы публикуем пoдрoбную метеoинфoрмацию в детальнoм прoфессиoнальнoм фoрмате.

Характеристики температуры и влажнoсти вoздуха измеряются на высoте 2 м в тени вдали oт зданий и деревьев.
Скoрoсть ветра измеряется на высoте 10 м (на урoвне рoста челoвека скoрoсть ветра ниже в 1.5-2 раза). Если метеoстанция нахoдится в гoрoде или в лесу, тo скoрoсть ветра занижена на 2-4 м/с пo сравнению с oткрытым местoм. Скoрoсть ветра над акватoриями крупных рек и oзёр, а также на вершинах хoлмoв на 2-5 м/с выше, чем в oбычных услoвиях.
Атмoсфернoе давление в разных тoчках местнoсти мoжет значительнo oтличаться oт давления на метеoстанции, в зависимoсти oт услoвий рельефа (при пoдъёме на 10 м давление пoнижается примернo на 1 мм рт.ст.).